GW0483 Weather Reports


Display with metric or nautical units.
time (UTC)temp
F
wind
direction
speed
MPH
gust
MPH
rain 1hr
in
rain 24hr
in
rain mn
in
humidity
%
barometer
mb
20260905055106 79 96 2.0 2.0 0.00 0.00 0.00 85 1012.9
20260905054602 79 67 1.0 1.0 0.00 0.00 0.00 85 1013.0
20260905054057 79 116 2.0 2.0 0.00 0.00 0.00 85 1013.1
20260905053556 79 160 3.0 3.0 0.00 0.00 0.00 84 1012.6
20260905053052 79 62 1.0 2.0 0.00 0.00 0.00 84 1013.1
20260905052551 79 139 3.0 3.0 0.00 0.00 0.00 84 1013.0
20260905052046 79 14 2.0 2.0 0.00 0.00 0.00 83 1013.1
20260905051541 79 142 2.0 2.0 0.00 0.00 0.00 83 1013.0
20260905051038 79 127 2.0 2.0 0.00 0.00 0.00 83 1012.9
20260905050534 80 109 1.0 2.0 0.00 0.00 0.00 82 1013.1
20260905050031 80 83 1.0 2.0 0.00 0.00 0.00 82 1012.9
20260905045526 80 135 2.0 2.0 0.00 0.00 0.00 82 1013.0
20260905045021 80 19 2.0 2.0 0.00 0.00 0.00 81 1013.0
20260905044520 80 111 1.0 2.0 0.00 0.00 0.00 81 1013.0
20260905044015 80 114 1.0 2.0 0.00 0.00 0.00 81 1013.0
20260905043515 80 106 2.0 2.0 0.00 0.00 0.00 80 1013.1
20260905043010 80 124 2.0 2.0 0.00 0.00 0.00 80 1013.3
20260905042508 80 80 1.0 2.0 0.00 0.00 0.00 80 1013.1
20260905042004 80 143 2.0 3.0 0.00 0.00 0.00 79 1013.2
20260905041459 80 94 1.0 3.0 0.00 0.00 0.00 79 1013.2
20260905040955 80 119 2.0 2.0 0.00 0.00 0.00 79 1012.9
20260905040454 80 101 2.0 2.0 0.00 0.00 0.00 78 1012.8
20260905035953 81 130 2.0 2.0 0.00 0.00 0.00 78 1013.0
20260905035448 81 43 1.0 1.0 0.00 0.00 0.00 78 1012.8
20260905034946 81 58 2.0 3.0 0.00 0.00 0.00 77 1012.9
20260905034441 81 195 3.0 3.0 0.00 0.00 0.00 77 1013.0
20260905033939 81 88 3.0 3.0 0.00 0.00 0.00 77 1012.8
20260905033439 81 59 1.0 2.0 0.00 0.00 0.00 76 1012.6
20260905032934 81 105 3.0 5.0 0.00 0.00 0.00 76 1012.6
20260905032430 81 94 2.0 3.0 0.00 0.00 0.00 76 1012.6
20260905031924 81 121 2.0 2.0 0.00 0.00 0.00 75 1012.6
20260905031420 81 77 2.0 2.0 0.00 0.00 0.00 75 1012.6
20260905030916 81 111 2.0 3.0 0.00 0.00 0.00 75 1012.8
20260905030411 81 133 2.0 2.0 0.00 0.00 0.00 74 1012.4
20260905025910 82 103 2.0 2.0 0.00 0.00 0.00 74 1012.6
20260905025405 82 108 3.0 3.0 0.00 0.00 0.00 74 1012.4
20260905024902 82 88 0.0 1.0 0.00 0.00 0.00 74 1012.3
20260905024356 81 109 2.0 2.0 0.00 0.00 0.00 74 1012.3
20260905023852 81 93 1.0 1.0 0.00 0.00 0.00 74 1012.1
20260905023347 82 96 1.0 1.0 0.00 0.00 0.00 74 1012.1
20260905022846 82 88 1.0 2.0 0.00 0.00 0.00 73 1012.0
20260905022341 82 23 2.0 2.0 0.00 0.00 0.00 73 1011.9
20260905021836 82 133 3.0 3.0 0.00 0.00 0.00 73 1011.8
20260905021331 82 120 1.0 2.0 0.00 0.00 0.00 73 1011.9
20260905020826 82 68 1.0 1.0 0.00 0.00 0.00 72 1012.0
20260905020321 82 121 1.0 2.0 0.00 0.00 0.00 72 1011.7
20260905015819 82 94 2.0 2.0 0.00 0.00 0.00 72 1011.6
20260905015314 82 114 1.0 1.0 0.00 0.00 0.00 72 1011.7
20260905014813 83 110 3.0 3.0 0.00 0.00 0.00 71 1011.9
20260905014309 83 109 1.0 1.0 0.00 0.00 0.00 71 1012.0
20260905013804 83 83 1.0 2.0 0.00 0.00 0.00 70 1011.7
20260905013300 83 165 2.0 2.0 0.00 0.00 0.00 70 1011.9
20260905012755 84 162 1.0 2.0 0.00 0.00 0.00 70 1011.7
20260905012250 84 72 0.0 1.0 0.00 0.00 0.00 69 1011.6
20260905011747 84 87 3.0 3.0 0.00 0.00 0.00 69 1011.5
20260905011243 84 109 2.0 2.0 0.00 0.00 0.00 68 1011.6
20260905010737 84 231 1.0 2.0 0.00 0.00 0.00 68 1011.4
20260905010232 85 126 2.0 2.0 0.00 0.00 0.00 68 1011.5
20260905005730 85 120 1.0 2.0 0.00 0.00 0.00 67 1011.3
20260905005225 85 113 1.0 1.0 0.00 0.00 0.00 67 1011.4
20260905004719 85 95 2.0 2.0 0.00 0.00 0.00 66 1011.4
20260905004215 86 106 2.0 3.0 0.00 0.00 0.00 64 1011.4
20260905003714 87 134 2.0 2.0 0.00 0.00 0.00 61 1011.3
20260905003210 87 49 2.0 2.0 0.00 0.00 0.00 61 1011.2
20260905002706 87 92 1.0 2.0 0.00 0.00 0.00 60 1011.3
20260905002205 88 99 2.0 2.0 0.00 0.00 0.00 60 1011.0
20260905001701 88 134 1.0 2.0 0.00 0.00 0.00 59 1011.1
20260905001200 88 197 6.0 7.0 0.00 0.00 0.00 58 1010.8
20260905000655 88 137 3.0 3.0 0.00 0.00 0.00 58 1010.7
20260905000151 89 116 2.0 2.0 0.00 0.00 0.00 57 1011.0
20260904235651 89 162 4.0 5.0 0.00 0.00 0.00 57 1010.8
20260904235150 89 120 1.0 1.0 0.00 0.00 0.00 58 1010.9
20260904234645 90 143 2.0 2.0 0.00 0.00 0.00 56 1010.8
20260904234141 89 143 2.0 3.0 0.00 0.00 0.00 56 1010.6
20260904233637 90 171 4.0 6.0 0.00 0.00 0.00 56 1010.7
20260904233132 90 63 1.0 1.0 0.00 0.00 0.00 57 1010.8
20260904232629 90 156 5.0 8.0 0.00 0.00 0.00 57 1010.8
20260904232125 91 100 3.0 3.0 0.00 0.00 0.00 58 1011.0
20260904231620 90 69 2.0 2.0 0.00 0.00 0.00 58 1010.7
20260904231115 91 123 2.0 2.0 0.00 0.00 0.00 58 1010.8
20260904230615 91 153 2.0 2.0 0.00 0.00 0.00 57 1010.9
20260904230110 92 90 1.0 1.0 0.00 0.00 0.00 57 1010.9
20260904225608 92 190 1.0 1.0 0.00 0.00 0.00 57 1010.8
20260904225103 91 46 1.0 2.0 0.00 0.00 0.00 58 1011.0
20260904224557 91 142 3.0 5.0 0.00 0.00 0.00 59 1010.8
20260904224052 91 171 4.0 6.0 0.00 0.00 0.00 59 1010.8
20260904223551 92 137 5.0 7.0 0.00 0.00 0.00 59 1011.0
20260904223047 91 136 3.0 3.0 0.00 0.00 0.00 60 1011.1
20260904222543 92 148 5.0 6.0 0.00 0.00 0.00 60 1011.1
20260904222038 92 153 3.0 3.0 0.00 0.00 0.00 60 1011.1
20260904221532 92 153 3.0 3.0 0.00 0.00 0.00 61 1011.0
20260904221027 89 137 3.0 5.0 0.00 0.00 0.00 62 1011.0
20260904220526 89 147 2.0 3.0 0.00 0.00 0.00 63 1011.1
20260904220022 89 112 2.0 2.0 0.00 0.00 0.00 63 1011.0
20260904215522 89 154 2.0 2.0 0.00 0.00 0.00 64 1011.2
20260904215018 88 93 2.0 5.0 0.00 0.00 0.00 64 1011.4
20260904214513 89 122 3.0 5.0 0.00 0.00 0.00 64 1011.4
20260904214008 89 143 3.0 3.0 0.00 0.00 0.00 64 1011.5
20260904213507 89 86 2.0 2.0 0.00 0.00 0.00 63 1011.7
20260904213004 89 138 1.0 1.0 0.00 0.00 0.00 63 1011.4
20260904212503 89 135 3.0 3.0 0.00 0.00 0.00 63 1011.9
20260904211958 89 87 2.0 2.0 0.00 0.00 0.00 63 1011.5
20260904211452 89 151 3.0 3.0 0.00 0.00 0.00 63 1012.1
20260904210948 89 138 5.0 6.0 0.00 0.00 0.00 63 1011.9
20260904210447 89 137 3.0 3.0 0.00 0.00 0.00 64 1012.1
20260904205943 89 101 3.0 3.0 0.00 0.00 0.00 65 1011.9
20260904205438 89 176 3.0 5.0 0.00 0.00 0.00 64 1011.9
20260904204935 89 94 2.0 2.0 0.00 0.00 0.00 63 1012.1
20260904204430 89 135 2.0 2.0 0.00 0.00 0.00 63 1012.4
20260904203927 89 142 4.0 5.0 0.00 0.00 0.00 63 1012.3
20260904203423 90 76 3.0 3.0 0.00 0.00 0.00 62 1012.1
20260904202918 90 136 4.0 5.0 0.00 0.00 0.00 63 1012.3
20260904202415 90 93 2.0 2.0 0.00 0.00 0.00 63 1011.8
20260904201910 90 120 2.0 2.0 0.00 0.00 0.00 62 1012.4
20260904201405 90 112 3.0 5.0 0.00 0.00 0.00 64 1012.5
20260904200901 89 183 3.0 3.0 0.00 0.00 0.00 64 1012.4
20260904200359 89 169 3.0 3.0 0.00 0.00 0.00 65 1012.3
20260904195854 90 143 4.0 5.0 0.00 0.00 0.00 64 1012.3
20260904195352 90 180 3.0 3.0 0.00 0.00 0.00 63 1012.5
20260904194847 89 97 1.0 1.0 0.00 0.00 0.00 64 1012.6
20260904194346 89 106 3.0 3.0 0.00 0.00 0.00 65 1012.8
20260904193842 89 270 3.0 3.0 0.00 0.00 0.00 64 1012.8
20260904193337 89 136 3.0 3.0 0.00 0.00 0.00 65 1012.6
20260904192832 89 184 4.0 5.0 0.00 0.00 0.00 66 1012.8
20260904192327 89 171 4.0 5.0 0.00 0.00 0.00 66 1012.6
20260904191824 90 125 3.0 3.0 0.00 0.00 0.00 64 1012.6
20260904191320 90 317 1.0 1.0 0.00 0.00 0.00 65 1012.5
20260904190817 90 17 1.0 2.0 0.00 0.00 0.00 63 1012.9
20260904190312 91 114 3.0 5.0 0.00 0.00 0.00 64 1013.1
20260904185808 91 152 3.0 5.0 0.00 0.00 0.00 65 1013.2
20260904185306 89 83 1.0 1.0 0.00 0.00 0.00 67 1013.2
20260904184803 89 38 3.0 3.0 0.00 0.00 0.00 65 1013.1
20260904184258 89 150 3.0 3.0 0.00 0.00 0.00 67 1013.3
20260904183753 88 212 3.0 5.0 0.00 0.00 0.00 67 1013.2
20260904183248 88 137 3.0 3.0 0.00 0.00 0.00 67 1013.3
20260904182743 89 350 3.0 3.0 0.00 0.00 0.00 68 1013.5
20260904182238 87 145 4.0 5.0 0.00 0.00 0.00 69 1013.6
20260904181734 87 86 3.0 3.0 0.00 0.00 0.00 71 1013.5
20260904181233 86 135 2.0 2.0 0.00 0.00 0.00 72 1013.7
20260904180729 87 69 1.0 1.0 0.00 0.00 0.00 72 1013.5
20260904180224 87 72 1.0 1.0 0.00 0.00 0.00 72 1013.6
20260904175723 86 176 4.0 6.0 0.00 0.00 0.00 73 1013.5
20260904175222 87 139 3.0 3.0 0.00 0.00 0.00 71 1013.4
20260904174717 86 107 1.0 2.0 0.00 0.00 0.00 73 1013.4
20260904174213 85 155 2.0 3.0 0.00 0.00 0.00 74 1013.9
20260904173708 85 148 5.0 7.0 0.00 0.00 0.00 76 1013.7
20260904173203 85 192 5.0 6.0 0.00 0.00 0.00 76 1013.8
20260904172700 85 171 3.0 3.0 0.00 0.00 0.00 75 1014.0
20260904172159 84 94 2.0 2.0 0.00 0.00 0.00 76 1013.8
20260904171654 84 126 5.0 6.0 0.00 0.00 0.00 77 1013.9
20260904171149 84 96 2.0 2.0 0.00 0.00 0.00 79 1014.1
20260904170645 83 79 2.0 3.0 0.00 0.00 0.00 80 1013.9
20260904170141 83 148 3.0 3.0 0.00 0.00 0.00 81 1013.9
20260904165639 83 121 2.0 2.0 0.00 0.00 0.00 81 1014.1
20260904165134 83 116 3.0 3.0 0.00 0.00 0.00 82 1014.1
20260904164634 82 76 1.0 2.0 0.00 0.00 0.00 82 1014.1
20260904164129 82 151 2.0 2.0 0.00 0.00 0.00 83 1013.9
20260904163624 83 147 1.0 2.0 0.00 0.00 0.00 82 1014.1
20260904163119 83 141 3.0 5.0 0.00 0.00 0.00 82 1014.2
20260904162614 83 199 3.0 5.0 0.00 0.00 0.00 82 1014.0
20260904162109 84 155 2.0 2.0 0.00 0.00 0.00 81 1013.9
20260904161604 84 38 2.0 2.0 0.00 0.00 0.00 81 1014.2
20260904161059 84 114 1.0 2.0 0.00 0.00 0.00 83 1014.3
20260904160554 82 65 1.0 2.0 0.00 0.00 0.00 85 1014.1
20260904160050 82 127 2.0 2.0 0.00 0.00 0.00 86 1014.3
20260904155549 81 120 3.0 3.0 0.00 0.00 0.00 88 1014.3
20260904155044 81 70 1.0 1.0 0.00 0.00 0.00 87 1014.3
20260904154538 81 76 2.0 2.0 0.00 0.00 0.00 88 1014.4
20260904154033 81 149 4.0 5.0 0.00 0.00 0.00 88 1014.3
20260904153532 81 127 3.0 3.0 0.00 0.00 0.00 88 1014.1
20260904153029 81 123 2.0 2.0 0.00 0.00 0.00 88 1014.3
20260904152524 81 145 3.0 5.0 0.00 0.00 0.00 89 1014.1
20260904152020 80 76 1.0 2.0 0.00 0.00 0.00 90 1013.8
20260904151515 80 227 2.0 2.0 0.00 0.00 0.00 90 1013.9
20260904151014 80 73 1.0 2.0 0.00 0.00 0.00 90 1013.8
20260904150515 80 91 2.0 3.0 0.00 0.00 0.00 91 1013.8
20260904150010 80 48 2.0 2.0 0.00 0.00 0.00 91 1013.9
20260904145504 80 97 1.0 1.0 0.00 0.00 0.00 92 1013.9
20260904144959 79 68 1.0 1.0 0.00 0.00 0.00 92 1013.8
20260904144455 79 99 2.0 3.0 0.00 0.00 0.00 93 1013.8
20260904143950 79 118 2.0 3.0 0.00 0.00 0.00 94 1013.8
20260904143446 78 154 2.0 3.0 0.00 0.00 0.00 94 1013.8
20260904142942 78 188 5.0 6.0 0.00 0.00 0.00 94 1013.8
20260904142433 78 32 2.0 3.0 0.00 0.00 0.00 94 1013.7
20260904141927 78 156 3.0 3.0 0.00 0.00 0.00 94 1013.8
20260904141422 78 144 1.0 2.0 0.00 0.00 0.00 94 1013.7
20260904140918 78 92 3.0 5.0 0.00 0.00 0.00 94 1013.9
20260904140412 78 94 1.0 1.0 0.00 0.00 0.00 95 1013.6
20260904135911 78 140 4.0 5.0 0.00 0.00 0.00 95 1013.4
20260904135406 78 134 3.0 3.0 0.00 0.00 0.00 95 1013.5
20260904134903 78 135 3.0 5.0 0.00 0.00 0.00 95 1013.5
20260904134402 78 28 2.0 3.0 0.00 0.00 0.00 95 1013.5
20260904133901 78 8 3.0 5.0 0.00 0.00 0.00 95 1013.5
20260904133357 78 89 2.0 2.0 0.00 0.00 0.00 95 1013.2
20260904132853 78 93 1.0 1.0 0.00 0.00 0.00 95 1013.5
20260904132348 78 150 3.0 5.0 0.00 0.00 0.00 95 1013.4
20260904131847 78 72 3.0 3.0 0.00 0.00 0.00 95 1013.3
20260904131343 77 120 1.0 1.0 0.00 0.00 0.00 95 1013.2
20260904130838 77 152 3.0 3.0 0.00 0.00 0.00 95 1013.0
20260904130337 77 131 3.0 3.0 0.00 0.00 0.00 95 1013.1
20260904125832 77 169 3.0 3.0 0.00 0.00 0.00 95 1013.2
20260904125329 77 144 2.0 3.0 0.00 0.00 0.00 95 1012.9
20260904124827 77 49 3.0 3.0 0.00 0.00 0.00 95 1013.0
20260904124325 77 115 3.0 3.0 0.00 0.00 0.00 95 1012.9
20260904123824 77 163 3.0 3.0 0.00 0.00 0.00 95 1013.0
20260904123320 77 109 2.0 2.0 0.00 0.00 0.00 96 1012.8
20260904122814 77 57 2.0 2.0 0.00 0.00 0.00 96 1012.9
20260904122309 77 88 2.0 2.0 0.00 0.00 0.00 96 1012.8
20260904121804 77 83 2.0 2.0 0.00 0.00 0.00 96 1012.8
20260904121300 77 44 0.0 0.0 0.00 0.00 0.00 96 1012.6
20260904120756 77 93 1.0 1.0 0.00 0.00 0.00 96 1012.6
20260904120252 77 86 2.0 2.0 0.00 0.00 0.00 96 1012.6
20260904115747 77 138 3.0 5.0 0.00 0.00 0.00 96 1012.5
20260904115242 77 105 1.0 2.0 0.00 0.00 0.00 96 1012.1
20260904114737 77 326 2.0 2.0 0.00 0.00 0.00 96 1012.4
20260904114236 77 120 3.0 3.0 0.00 0.00 0.00 96 1012.1
20260904113731 77 134 2.0 2.0 0.00 0.00 0.00 96 1012.0
20260904113230 77 118 3.0 3.0 0.00 0.00 0.00 96 1012.0
20260904112726 77 80 2.0 2.0 0.00 0.00 0.00 96 1012.1
20260904112221 77 97 1.0 1.0 0.00 0.00 0.00 96 1012.0
20260904111717 77 120 1.0 2.0 0.00 0.00 0.00 96 1012.0
20260904111212 77 72 2.0 2.0 0.00 0.00 0.00 96 1011.9
20260904110708 77 85 2.0 3.0 0.00 0.00 0.00 96 1012.1
20260904110207 77 82 1.0 2.0 0.00 0.00 0.00 96 1012.0
20260904105702 76 70 0.0 1.0 0.00 0.00 0.00 96 1012.1
20260904105157 76 105 1.0 1.0 0.00 0.00 0.00 96 1012.0
20260904104652 76 73 1.0 1.0 0.00 0.00 0.00 96 1012.1
20260904104148 76 56 0.0 0.0 0.00 0.00 0.00 96 1011.8
20260904103644 76 121 1.0 2.0 0.00 0.00 0.00 96 1012.2
20260904103139 76 92 1.0 1.0 0.00 0.00 0.00 95 1011.9
20260904102635 76 62 1.0 1.0 0.00 0.00 0.00 95 1011.9
20260904102130 76 76 0.0 1.0 0.00 0.00 0.00 95 1011.9
20260904101627 76 151 2.0 2.0 0.00 0.00 0.00 95 1011.6
20260904101122 77 124 2.0 2.0 0.00 0.00 0.00 95 1011.8
20260904100618 77 128 1.0 2.0 0.00 0.00 0.00 95 1011.7
20260904100113 77 86 1.0 2.0 0.00 0.00 0.00 95 1011.8
20260904095608 77 124 1.0 2.0 0.00 0.00 0.00 95 1011.6
20260904095103 77 112 2.0 2.0 0.00 0.00 0.00 95 1011.7
20260904094603 77 95 1.0 1.0 0.00 0.00 0.00 95 1011.8
20260904094057 77 101 2.0 2.0 0.00 0.00 0.00 95 1011.9
20260904093554 77 64 1.0 1.0 0.00 0.00 0.00 95 1011.8
20260904093049 77 89 1.0 1.0 0.00 0.00 0.00 95 1011.8
20260904092544 77 75 1.0 2.0 0.00 0.00 0.00 95 1011.7
20260904092041 77 85 1.0 1.0 0.00 0.00 0.00 95 1011.6
20260904091537 77 78 1.0 1.0 0.00 0.00 0.00 95 1011.7
20260904091036 77 81 1.0 2.0 0.00 0.00 0.00 95 1011.9
20260904090532 77 75 1.0 2.0 0.00 0.00 0.00 95 1011.8
20260904090028 77 80 2.0 2.0 0.00 0.00 0.00 95 1011.9
20260904085522 77 102 1.0 1.0 0.00 0.00 0.00 95 1011.7
20260904085022 77 346 2.0 2.0 0.00 0.00 0.00 95 1011.5
20260904084518 77 88 2.0 2.0 0.00 0.00 0.00 94 1011.6
20260904084014 77 73 1.0 2.0 0.00 0.00 0.00 94 1011.7
20260904083510 77 85 1.0 2.0 0.00 0.00 0.00 94 1011.6
20260904083006 77 71 2.0 2.0 0.00 0.00 0.00 94 1011.6
20260904082501 77 109 1.0 1.0 0.00 0.00 0.00 94 1011.8
20260904081955 77 114 1.0 2.0 0.00 0.00 0.00 94 1011.8
20260904081450 77 105 2.0 2.0 0.00 0.00 0.00 93 1011.7
20260904080946 77 162 1.0 2.0 0.00 0.00 0.00 93 1011.8
20260904080441 77 130 2.0 2.0 0.00 0.00 0.00 93 1011.9
20260904075937 78 98 1.0 1.0 0.00 0.00 0.00 93 1011.7
20260904075433 78 85 1.0 2.0 0.00 0.00 0.00 93 1011.8
20260904074932 78 150 2.0 2.0 0.00 0.00 0.00 93 1011.9
20260904074427 78 97 1.0 1.0 0.00 0.00 0.00 93 1011.7
20260904073922 78 141 0.0 1.0 0.00 0.00 0.00 92 1012.1
20260904073418 78 96 1.0 2.0 0.00 0.00 0.00 92 1011.9
20260904072914 78 93 2.0 2.0 0.00 0.00 0.00 92 1012.1
20260904072409 78 69 3.0 3.0 0.00 0.00 0.00 92 1012.3
20260904071904 78 73 2.0 2.0 0.00 0.00 0.00 92 1012.0
20260904071359 78 143 2.0 2.0 0.00 0.00 0.00 92 1012.0
20260904070900 78 134 2.0 2.0 0.00 0.00 0.00 91 1012.3
20260904070359 78 132 3.0 3.0 0.00 0.00 0.00 91 1012.2
20260904065853 78 14 2.0 2.0 0.00 0.00 0.00 91 1012.2
20260904065350 78 271 4.0 9.0 0.00 0.00 0.00 91 1012.3
20260904064849 79 158 3.0 5.0 0.00 0.00 0.00 90 1012.2
20260904064346 79 173 2.0 3.0 0.00 0.00 0.00 90 1012.4
20260904063841 79 148 2.0 2.0 0.00 0.00 0.00 90 1012.4
20260904063337 79 108 3.0 5.0 0.00 0.00 0.00 90 1012.5
20260904062837 79 176 4.0 6.0 0.00 0.00 0.00 90 1012.5
20260904062334 79 162 3.0 3.0 0.00 0.00 0.00 89 1012.3
20260904061829 79 156 7.0 10.0 0.00 0.00 0.00 89 1012.4
20260904061325 79 88 2.0 2.0 0.00 0.00 0.00 89 1012.3
20260904060821 79 150 5.0 7.0 0.00 0.00 0.00 89 1012.5
20260904060317 79 112 3.0 6.0 0.00 0.00 0.00 88 1012.4
20260904055812 79 31 4.0 5.0 0.00 0.00 0.00 88 1012.5